sat.trackr.live / text

‹ back to catalog

STARLINK-5608

NORAD 55353 · 2023-013Y

PAYLOAD ACTIVE UNKNOWN

§ Identity

Operator
Country
US
Launch date
2023-01-26
Launch site
AFETR
Launch vehicle
Mass (kg)
RCS (m²)

Purposes: comms

External: N2YO · Heavens-Above · Gunter

§ Orbital elements

Epoch: 2026-05-24T12:31:22.851264Z

Period
94.27 min
Inclination
43.0025°
Eccentricity
0.0001343
Mean motion
15.27566694 rev/d
Perigee alt
482.2 km
Apogee alt
484.0 km
Semi-major
6,861.2 km
B*
4.7941e-5
RAAN
231.5072°
Arg perigee
283.3420°
Mean anomaly
76.7282°
Rev number
18,331

§ Raw data

STARLINK-56081 55353U 23013Y   26144.52179226  .00001057  00000+0  47941-4 0  99922 55353  43.0025 231.5072 0001343 283.3420  76.7282 15.27566694183319

JSON: /api/v1/satellites/55353 · /tle

For live sub-satellite position, see the globe view (requires WebGL).

§ Visibility from observer

Set your observer location to see the next 7 days of passes ≥ 10°. The values pass through the URL so the page stays shareable.

No JS? Fill the form by hand. The geolocation button needs JavaScript.